Weather History for KCCA - December, 2013

Change the Weather History Date:

Friday, December 27, 2013

  Actual Average (KFLP) Record (KFLP)
Temperature  
Mean Temperature 42 °F -  
Max Temperature 60 °F 44 °F 71 °F (2005)
Min Temperature 23 °F 26 °F 12 °F (2010)
Degree Days  
Heating Degree Days 24    
Moisture  
Dew Point 28 °F    
Average Humidity 78    
Maximum Humidity 100    
Minimum Humidity 29    
Precipitation  
Precipitation 0.00 in - - ()
Sea Level Pressure  
Sea Level Pressure 30.41 in    
Wind  
Wind Speed 1 mph (SSE)    
Max Wind Speed 7 mph    
Max Gust Speed -    
Visibility 8 miles    
Events      
Averages and records for this station are not official NWS values.
T = Trace of Precipitation, MM = Missing Value Source: NWS Daily Summary

Daily Weather History Graph

Daily Weather History Graph

Search for Another Location

Airport or City:

Trip Planner

Search our weather history database for the weather conditions in past years. The results will help you decide how hot, cold, wet, or windy it might be!

Date:

Astronomy

Dec. 27, 2013 Rise Set
Actual Time 7:18 AM CST 5:04 PM CST
Civil Twilight 6:49 AM CST 5:32 PM CST
Nautical Twilight 6:17 AM CST 6:04 PM CST
Astronomical Twilight 5:46 AM CST 6:35 PM CST
Moon 1:56 AM CST (12/27) 1:09 PM CST (12/27)
Length of Visible Light 10h 42m
Length of Day
9h 45m
Waning Crescent, 28% of the Moon is Illuminated
Dec 27
Waning Crescent
Jan 1
New
Jan 7
First Quarter
Jan 15
Full
Jan 23
Last Quarter

Hourly Weather History & Observations

Time (CST) Temp. Dew Point Humidity Pressure Visibility Wind Dir Wind Speed Gust Speed Precip Events Conditions
12:15 AM 28.4 °F 26.6 °F 93% 30.43 in 8.0 mi Calm Calm - N/A   Clear
12:35 AM 26.6 °F 26.6 °F 100% 30.42 in 8.0 mi Calm Calm - N/A   Clear
12:55 AM 26.6 °F 26.6 °F 100% 30.41 in 8.0 mi Calm Calm - N/A   Clear
1:15 AM 26.6 °F 26.6 °F 100% 30.41 in 8.0 mi Calm Calm - N/A   Clear
1:35 AM 26.6 °F 24.8 °F 93% 30.42 in 9.0 mi Calm Calm - N/A   Clear
1:55 AM 26.6 °F 24.8 °F 93% 30.42 in 9.0 mi Calm Calm - N/A   Clear
2:15 AM 26.6 °F 24.8 °F 93% 30.43 in 8.0 mi Calm Calm - N/A   Clear
2:35 AM 26.6 °F 24.8 °F 93% 30.43 in 8.0 mi Calm Calm - N/A   Clear
2:55 AM 26.6 °F 24.8 °F 93% 30.43 in 8.0 mi Calm Calm - N/A   Clear
3:15 AM 26.6 °F 24.8 °F 93% 30.42 in 9.0 mi Calm Calm - N/A   Clear
3:35 AM 26.6 °F 24.8 °F 93% 30.42 in 9.0 mi Calm Calm - N/A   Clear
3:55 AM 26.6 °F 23.0 °F 86% 30.42 in 9.0 mi Calm Calm - N/A   Clear
4:15 AM 24.8 °F 23.0 °F 93% 30.42 in 8.0 mi Calm Calm - N/A   Clear
4:35 AM 24.8 °F 23.0 °F 93% 30.42 in 9.0 mi Calm Calm - N/A   Clear
4:55 AM 24.8 °F 23.0 °F 93% 30.42 in 9.0 mi Calm Calm - N/A   Clear
5:15 AM 24.8 °F 23.0 °F 93% 30.41 in 9.0 mi Calm Calm - N/A   Clear
5:35 AM 24.8 °F 23.0 °F 93% 30.42 in 7.0 mi Calm Calm - N/A   Clear
5:55 AM 23.0 °F 23.0 °F 100% 30.43 in 7.0 mi Calm Calm - N/A   Clear
6:15 AM 24.8 °F 23.0 °F 93% 30.44 in 9.0 mi Calm Calm - N/A   Clear
6:35 AM 23.0 °F 23.0 °F 100% 30.44 in 9.0 mi Calm Calm - N/A   Clear
6:55 AM 23.0 °F 23.0 °F 100% 30.44 in 8.0 mi Calm Calm - N/A   Clear
7:15 AM 23.0 °F 23.0 °F 100% 30.45 in 9.0 mi Calm Calm - N/A   Clear
7:35 AM 23.0 °F 23.0 °F 100% 30.45 in 9.0 mi Calm Calm - N/A   Clear
7:55 AM 24.8 °F 23.0 °F 93% 30.46 in 9.0 mi Calm Calm - N/A   Clear
8:15 AM 26.6 °F 24.8 °F 93% 30.47 in 7.0 mi Calm Calm - N/A   Clear
8:35 AM 28.4 °F 26.6 °F 93% 30.47 in 7.0 mi Calm Calm - N/A   Clear
8:55 AM 30.2 °F 28.4 °F 93% 30.47 in 8.0 mi Calm Calm - N/A   Clear
9:15 AM 32.0 °F 28.4 °F 87% 30.47 in 8.0 mi Calm Calm - N/A   Clear
9:35 AM 32.0 °F 30.2 °F 93% 30.47 in 8.0 mi Calm Calm - N/A   Clear
9:55 AM 33.8 °F 32.0 °F 93% 30.48 in 9.0 mi Calm Calm - N/A   Clear
10:15 AM 35.6 °F 32.0 °F 87% 30.47 in 9.0 mi Calm Calm - N/A   Clear
10:35 AM 39.2 °F 32.0 °F 75% 30.47 in 9.0 mi Calm Calm - N/A   Clear
10:55 AM 42.8 °F 32.0 °F 66% 30.46 in 9.0 mi Calm Calm - N/A   Clear
11:15 AM 44.6 °F 32.0 °F 61% 30.45 in 10.0 mi Calm Calm - N/A   Clear
11:35 AM 48.2 °F 33.8 °F 58% 30.44 in 10.0 mi Calm Calm - N/A   Clear
11:55 AM 51.8 °F 32.0 °F 47% 30.44 in 10.0 mi Calm Calm - N/A   Clear
12:15 PM 53.6 °F 32.0 °F 44% 30.42 in 10.0 mi Calm Calm - N/A   Clear
12:35 PM 53.6 °F 30.2 °F 41% 30.41 in 10.0 mi Calm Calm - N/A   Clear
12:55 PM 55.4 °F 32.0 °F 41% 30.40 in 10.0 mi East 4.6 mph - N/A   Clear
1:15 PM 57.2 °F 30.2 °F 36% 30.38 in 10.0 mi Calm Calm - N/A   Clear
1:35 PM 57.2 °F 26.6 °F 31% 30.37 in 10.0 mi SE 4.6 mph - N/A   Clear
1:55 PM 59.0 °F 28.4 °F 31% 30.37 in 10.0 mi SW 3.5 mph - N/A   Clear
2:15 PM 59.0 °F 30.2 °F 34% 30.36 in 10.0 mi SSE 6.9 mph - N/A   Clear
2:35 PM 60.8 °F 30.2 °F 31% 30.36 in 10.0 mi South 5.8 mph - N/A   Clear
2:55 PM 59.0 °F 26.6 °F 29% 30.36 in 9.0 mi SSE 6.9 mph - N/A   Clear
3:15 PM 59.0 °F 28.4 °F 31% 30.36 in 10.0 mi SSW 6.9 mph - N/A   Clear
3:35 PM 57.2 °F 30.2 °F 36% 30.36 in 10.0 mi South 6.9 mph - N/A   Clear
3:55 PM 57.2 °F 32.0 °F 38% 30.36 in 10.0 mi South 4.6 mph - N/A   Clear
4:15 PM 55.4 °F 30.2 °F 38% 30.37 in 10.0 mi South 6.9 mph - N/A   Clear
4:35 PM 55.4 °F 30.2 °F 38% 30.37 in 10.0 mi South 4.6 mph - N/A   Clear
4:55 PM 53.6 °F 32.0 °F 44% 30.37 in 10.0 mi South 4.6 mph - N/A   Clear
5:15 PM 48.2 °F 32.0 °F 54% 30.37 in 10.0 mi Calm Calm - N/A   Clear
5:35 PM 42.8 °F 33.8 °F 70% 30.37 in 10.0 mi Calm Calm - N/A   Clear
5:55 PM 39.2 °F 32.0 °F 75% 30.36 in 10.0 mi Calm Calm - N/A   Clear
6:15 PM 37.4 °F 32.0 °F 81% 30.37 in 8.0 mi Calm Calm - N/A   Clear
6:35 PM 37.4 °F 32.0 °F 81% 30.37 in 8.0 mi Calm Calm - N/A   Clear
6:55 PM 35.6 °F 32.0 °F 87% 30.37 in 7.0 mi Calm Calm - N/A   Clear
7:15 PM 33.8 °F 32.0 °F 93% 30.38 in 7.0 mi Calm Calm - N/A   Clear
7:35 PM 33.8 °F 32.0 °F 93% 30.38 in 7.0 mi Calm Calm - N/A   Clear
7:55 PM 32.0 °F 32.0 °F 100% 30.38 in 7.0 mi Calm Calm - N/A   Clear
8:15 PM 32.0 °F 32.0 °F 100% 30.38 in 7.0 mi Calm Calm - N/A   Clear
8:35 PM 32.0 °F 30.2 °F 93% 30.38 in 7.0 mi Calm Calm - N/A   Clear
8:55 PM 32.0 °F 30.2 °F 93% 30.38 in 7.0 mi Calm Calm - N/A   Clear
9:15 PM 32.0 °F 30.2 °F 93% 30.38 in 6.0 mi Calm Calm - N/A   Clear
9:35 PM 32.0 °F 30.2 °F 93% 30.39 in 7.0 mi Calm Calm - N/A   Clear
9:55 PM 30.2 °F 30.2 °F 100% 30.39 in 5.0 mi Calm Calm - N/A   Clear
10:15 PM 30.2 °F 30.2 °F 100% 30.39 in 7.0 mi Calm Calm - N/A   Clear
10:35 PM 30.2 °F 30.2 °F 100% 30.39 in 6.0 mi Calm Calm - N/A   Clear
10:55 PM 30.2 °F 28.4 °F 93% 30.39 in 7.0 mi Calm Calm - N/A   Clear
11:15 PM 30.2 °F 28.4 °F 93% 30.39 in 6.0 mi Calm Calm - N/A   Clear
11:35 PM 30.2 °F 28.4 °F 93% 30.38 in 6.0 mi Calm Calm - N/A   Clear
11:55 PM 30.2 °F 28.4 °F 93% 30.38 in 5.0 mi Calm Calm - N/A   Clear